STARLINK-4487, 53531

Orbit data source: Space-Track

STARLINK-4487, 53531 is a payload satellite owned by SpaceX/Seattle (US) in LEO that was launched on Fri, 19 Aug 2022 UTC via an FALCON 9 launch vehicle from the Air Force Eastern Test Range (AFETR). Payload-class satellites include a variety of spacecraft equipped with specific instruments for various scientific and technological missions. These include communications satellites like Starlink; space stations such as the ISS; scientific satellites like the Hubble; Earth observation satellites from companies like Planet Labs, Umbra, and HawkEye 360; GPS; miniature CubeSats for education and research; and military/defense satellites.

Loading next visibility...
Identifier
53531, 2022-101E
Orbit
LEO
Country
Flag of USUS
Related business
Manufacturer
SpaceX/Seattle
Mission
Operational Commercial Communications
Bus & Motor
STARLINK, Unknown motor
Mass
300 kg wet, ~290 kg dry
Launch date (UTC)
2022-08-19 (4 years ago)
Launch vehicle
FALCON 9
Launch site
Air Force Eastern Test Range (AFETR)
Object type
Payload
Rocket body
Debris
Shape & HBR
Box + 1 Pan, 10.1 m
Radar Cross Section
13.562 m², Large (>1 m²)

Expand to show TLE details & history
Last TLE update: 3 days ago

TLE from 3 days ago
0 STARLINK-4487
1 53531U 22101E   26170.84445727  .00000296  00000-0  36710-4 0  9998
2 53531  53.1603 335.4161 0001225  90.6202 269.4929 15.08835257211581
Epoch: 2026-06-19T20:16Z
TLE epoch observation values (Epoch: 2026-06-19T20:16:01.108Z)
Latitude
-0.00007°
Longitude
123.34383°
Altitude
540.657 km
Speed
7.593 km/s
True Right ascension
22h 21m 39s
True Declination
0° 00' 00"
Sunlit
Object was in daylight at epoch
Visualization orbit readout
Latitude
Unknown
Longitude
Unknown
Altitude
Unknown
Speed
Unknown
Apparent Right ascension
Unknown
Apparent Declination
Unknown
Sunlit
N/A
Visualization observer readout
Local Sidereal Time
21:30:03
Azimuth
Unknown
Elevation
Unknown
Doppler factor
Unknown
Orbital elements
Apogee altitude
540.859 km
Perigee altitude
539.164 km
Semi-major axis
6,918.149 km
Eccentricity
0.00012
Inclination
53.1603°
RAAN
335.4161°
Arg. of periapsis
90.6202°
True anomaly
269.47886°
Mean anomaly
269.4929°
Eccentric anomaly
269.48588°
Mean motion
3.77188 °/min
Orbital period
95.44 mins
BSTAR
0.00003671
Loading maneuver chart data...
Computing Atmospheric mass density...
Loading historical data...
Loading historical data...
Loading historical data...
Loading historical data...
Loading historical data...
Loading historical data...
Loading historical data...

Documentation

Showing up to 5 results
|